owner,sensor,date,latitude,longitude,sea_surface_height_above_sea_level,qcFlag 
TCOON,ioos:station:TCOON:068:1,2019-11-01T00:18:00Z,27.2970,-97.4049,4.537,11111222 
TCOON,ioos:station:TCOON:068:1,2019-11-01T01:18:00Z,27.2970,-97.4049,4.533,11111222 
TCOON,ioos:station:TCOON:068:1,2019-11-01T02:18:00Z,27.2970,-97.4049,4.523,11111222 
TCOON,ioos:station:TCOON:068:1,2019-11-01T03:18:00Z,27.2970,-97.4049,4.524,11111222 
TCOON,ioos:station:TCOON:068:1,2019-11-01T04:18:00Z,27.2970,-97.4049,4.52,11111222 
TCOON,ioos:station:TCOON:068:1,2019-11-01T05:18:00Z,27.2970,-97.4049,4.521,11111222 
TCOON,ioos:station:TCOON:068:1,2019-11-01T06:18:00Z,27.2970,-97.4049,4.522,11111222 
TCOON,ioos:station:TCOON:068:1,2019-11-01T07:18:00Z,27.2970,-97.4049,4.52,11111222 
TCOON,ioos:station:TCOON:068:1,2019-11-01T08:18:00Z,27.2970,-97.4049,4.516,11111222 
TCOON,ioos:station:TCOON:068:1,2019-11-01T09:18:00Z,27.2970,-97.4049,4.514,11111222 
TCOON,ioos:station:TCOON:068:1,2019-11-01T10:18:00Z,27.2970,-97.4049,4.517,11111222 
TCOON,ioos:station:TCOON:068:1,2019-11-01T11:18:00Z,27.2970,-97.4049,4.521,11111222 
TCOON,ioos:station:TCOON:068:1,2019-11-01T12:18:00Z,27.2970,-97.4049,4.53,11111222 
TCOON,ioos:station:TCOON:068:1,2019-11-01T13:18:00Z,27.2970,-97.4049,4.53,11111222 
TCOON,ioos:station:TCOON:068:1,2019-11-01T14:18:00Z,27.2970,-97.4049,4.529,11111222 
TCOON,ioos:station:TCOON:068:1,2019-11-01T15:18:00Z,27.2970,-97.4049,4.529,11111222 
TCOON,ioos:station:TCOON:068:1,2019-11-01T16:18:00Z,27.2970,-97.4049,4.526,11111222 
TCOON,ioos:station:TCOON:068:1,2019-11-01T17:18:00Z,27.2970,-97.4049,4.528,11111222 
TCOON,ioos:station:TCOON:068:1,2019-11-01T18:18:00Z,27.2970,-97.4049,4.531,11111222 
TCOON,ioos:station:TCOON:068:1,2019-11-01T19:18:00Z,27.2970,-97.4049,4.534,11111222 
TCOON,ioos:station:TCOON:068:1,2019-11-01T20:18:00Z,27.2970,-97.4049,4.529,11111222 
TCOON,ioos:station:TCOON:068:1,2019-11-01T21:18:00Z,27.2970,-97.4049,4.528,11111222 
TCOON,ioos:station:TCOON:068:1,2019-11-01T22:18:00Z,27.2970,-97.4049,4.529,11111222 
TCOON,ioos:station:TCOON:068:1,2019-11-01T23:18:00Z,27.2970,-97.4049,4.53,11111222 
TCOON,ioos:station:TCOON:068:1,2019-11-02T00:18:00Z,27.2970,-97.4049,4.532,11111222 
TCOON,ioos:station:TCOON:068:1,2019-11-02T01:18:00Z,27.2970,-97.4049,4.534,11111222 
TCOON,ioos:station:TCOON:068:1,2019-11-02T02:18:00Z,27.2970,-97.4049,4.535,11111222 
TCOON,ioos:station:TCOON:068:1,2019-11-02T03:18:00Z,27.2970,-97.4049,4.529,11111222 
TCOON,ioos:station:TCOON:068:1,2019-11-02T04:18:00Z,27.2970,-97.4049,4.522,11111222 
TCOON,ioos:station:TCOON:068:1,2019-11-02T05:18:00Z,27.2970,-97.4049,4.49,11111222 
TCOON,ioos:station:TCOON:068:1,2019-11-02T06:18:00Z,27.2970,-97.4049,4.518,11111222 
TCOON,ioos:station:TCOON:068:1,2019-11-02T07:18:00Z,27.2970,-97.4049,4.513,11111222 
TCOON,ioos:station:TCOON:068:1,2019-11-02T08:18:00Z,27.2970,-97.4049,4.512,11111222 
TCOON,ioos:station:TCOON:068:1,2019-11-02T09:18:00Z,27.2970,-97.4049,4.513,11111222 
TCOON,ioos:station:TCOON:068:1,2019-11-02T10:18:00Z,27.2970,-97.4049,4.513,11111222 
TCOON,ioos:station:TCOON:068:1,2019-11-02T11:18:00Z,27.2970,-97.4049,4.514,11111222 
TCOON,ioos:station:TCOON:068:1,2019-11-02T12:18:00Z,27.2970,-97.4049,4.511,11111222 
TCOON,ioos:station:TCOON:068:1,2019-11-02T13:18:00Z,27.2970,-97.4049,4.512,11111222 
TCOON,ioos:station:TCOON:068:1,2019-11-02T14:18:00Z,27.2970,-97.4049,4.51,11111222 
TCOON,ioos:station:TCOON:068:1,2019-11-02T15:18:00Z,27.2970,-97.4049,4.509,11111222 
TCOON,ioos:station:TCOON:068:1,2019-11-02T16:18:00Z,27.2970,-97.4049,4.505,11111222 
TCOON,ioos:station:TCOON:068:1,2019-11-02T17:18:00Z,27.2970,-97.4049,4.503,11111222 
TCOON,ioos:station:TCOON:068:1,2019-11-02T18:18:00Z,27.2970,-97.4049,4.509,11111222 
TCOON,ioos:station:TCOON:068:1,2019-11-02T19:18:00Z,27.2970,-97.4049,4.511,11111222 
TCOON,ioos:station:TCOON:068:1,2019-11-02T20:18:00Z,27.2970,-97.4049,4.508,11111222 
TCOON,ioos:station:TCOON:068:1,2019-11-02T21:18:00Z,27.2970,-97.4049,4.509,11111222 
TCOON,ioos:station:TCOON:068:1,2019-11-02T22:18:00Z,27.2970,-97.4049,4.502,11111222 
TCOON,ioos:station:TCOON:068:1,2019-11-02T23:18:00Z,27.2970,-97.4049,4.499,11111222 
TCOON,ioos:station:TCOON:068:1,2019-11-03T00:18:00Z,27.2970,-97.4049,4.498,11111222 
TCOON,ioos:station:TCOON:068:1,2019-11-03T01:18:00Z,27.2970,-97.4049,4.506,11111222 
TCOON,ioos:station:TCOON:068:1,2019-11-03T02:18:00Z,27.2970,-97.4049,4.511,11111222 
TCOON,ioos:station:TCOON:068:1,2019-11-03T03:18:00Z,27.2970,-97.4049,4.513,11111222 
TCOON,ioos:station:TCOON:068:1,2019-11-03T04:18:00Z,27.2970,-97.4049,4.512,11111222 
TCOON,ioos:station:TCOON:068:1,2019-11-03T05:18:00Z,27.2970,-97.4049,4.512,11111222 
TCOON,ioos:station:TCOON:068:1,2019-11-03T06:18:00Z,27.2970,-97.4049,4.511,11111222 
TCOON,ioos:station:TCOON:068:1,2019-11-03T07:18:00Z,27.2970,-97.4049,4.508,11111222 
TCOON,ioos:station:TCOON:068:1,2019-11-03T08:18:00Z,27.2970,-97.4049,4.506,11111222 
TCOON,ioos:station:TCOON:068:1,2019-11-03T09:18:00Z,27.2970,-97.4049,4.505,11111222 
TCOON,ioos:station:TCOON:068:1,2019-11-03T10:18:00Z,27.2970,-97.4049,4.5,11111222 
TCOON,ioos:station:TCOON:068:1,2019-11-03T11:18:00Z,27.2970,-97.4049,4.497,11111222 
TCOON,ioos:station:TCOON:068:1,2019-11-03T12:18:00Z,27.2970,-97.4049,4.496,11111222 
TCOON,ioos:station:TCOON:068:1,2019-11-03T13:18:00Z,27.2970,-97.4049,4.496,11111222 
TCOON,ioos:station:TCOON:068:1,2019-11-03T14:18:00Z,27.2970,-97.4049,4.493,11111222 
TCOON,ioos:station:TCOON:068:1,2019-11-03T15:18:00Z,27.2970,-97.4049,4.495,11111222 
TCOON,ioos:station:TCOON:068:1,2019-11-03T16:18:00Z,27.2970,-97.4049,4.513,11111222 
TCOON,ioos:station:TCOON:068:1,2019-11-03T17:18:00Z,27.2970,-97.4049,4.511,11111222 
TCOON,ioos:station:TCOON:068:1,2019-11-03T18:18:00Z,27.2970,-97.4049,4.516,11111222 
TCOON,ioos:station:TCOON:068:1,2019-11-03T19:18:00Z,27.2970,-97.4049,4.519,11111222 
TCOON,ioos:station:TCOON:068:1,2019-11-03T20:18:00Z,27.2970,-97.4049,4.514,11111222 
TCOON,ioos:station:TCOON:068:1,2019-11-03T21:18:00Z,27.2970,-97.4049,4.508,11111222 
TCOON,ioos:station:TCOON:068:1,2019-11-03T22:18:00Z,27.2970,-97.4049,4.51,11111222 
TCOON,ioos:station:TCOON:068:1,2019-11-03T23:18:00Z,27.2970,-97.4049,4.512,11111222 
TCOON,ioos:station:TCOON:068:1,2019-11-04T00:18:00Z,27.2970,-97.4049,4.51,11111222 
TCOON,ioos:station:TCOON:068:1,2019-11-04T01:18:00Z,27.2970,-97.4049,4.513,11111222 
TCOON,ioos:station:TCOON:068:1,2019-11-04T02:18:00Z,27.2970,-97.4049,4.506,11111222 
TCOON,ioos:station:TCOON:068:1,2019-11-04T03:18:00Z,27.2970,-97.4049,4.501,11111222 
TCOON,ioos:station:TCOON:068:1,2019-11-04T04:18:00Z,27.2970,-97.4049,4.496,11111222 
TCOON,ioos:station:TCOON:068:1,2019-11-04T05:18:00Z,27.2970,-97.4049,4.494,11111222 
TCOON,ioos:station:TCOON:068:1,2019-11-04T15:54:00Z,27.2970,-97.4049,4.484,11111222 
TCOON,ioos:station:TCOON:068:1,2019-11-04T16:18:00Z,27.2970,-97.4049,4.487,11111222 
TCOON,ioos:station:TCOON:068:1,2019-11-04T17:18:00Z,27.2970,-97.4049,4.488,11111222 
TCOON,ioos:station:TCOON:068:1,2019-11-04T18:18:00Z,27.2970,-97.4049,4.483,11111222 
TCOON,ioos:station:TCOON:068:1,2019-11-04T19:18:00Z,27.2970,-97.4049,4.478,11111222 
TCOON,ioos:station:TCOON:068:1,2019-11-04T20:18:00Z,27.2970,-97.4049,4.477,11111222 
TCOON,ioos:station:TCOON:068:1,2019-11-04T21:18:00Z,27.2970,-97.4049,4.464,11111222 
TCOON,ioos:station:TCOON:068:1,2019-11-04T22:18:00Z,27.2970,-97.4049,4.466,11111222 
TCOON,ioos:station:TCOON:068:1,2019-11-04T23:18:00Z,27.2970,-97.4049,4.473,11111222 
TCOON,ioos:station:TCOON:068:1,2019-11-05T00:18:00Z,27.2970,-97.4049,4.473,11111222 
TCOON,ioos:station:TCOON:068:1,2019-11-05T01:18:00Z,27.2970,-97.4049,4.482,11111222 
TCOON,ioos:station:TCOON:068:1,2019-11-05T02:18:00Z,27.2970,-97.4049,4.488,11111222 
TCOON,ioos:station:TCOON:068:1,2019-11-05T03:18:00Z,27.2970,-97.4049,4.485,11111222 
TCOON,ioos:station:TCOON:068:1,2019-11-05T04:18:00Z,27.2970,-97.4049,4.478,11111222 
TCOON,ioos:station:TCOON:068:1,2019-11-05T05:18:00Z,27.2970,-97.4049,4.471,11111222 
TCOON,ioos:station:TCOON:068:1,2019-11-05T06:18:00Z,27.2970,-97.4049,4.469,11111222 
TCOON,ioos:station:TCOON:068:1,2019-11-05T07:18:00Z,27.2970,-97.4049,4.471,11111222 
TCOON,ioos:station:TCOON:068:1,2019-11-05T08:18:00Z,27.2970,-97.4049,4.47,11111222 
TCOON,ioos:station:TCOON:068:1,2019-11-05T09:18:00Z,27.2970,-97.4049,4.467,11111222 
TCOON,ioos:station:TCOON:068:1,2019-11-05T10:18:00Z,27.2970,-97.4049,4.461,11111222 
TCOON,ioos:station:TCOON:068:1,2019-11-05T11:18:00Z,27.2970,-97.4049,4.46,11111222 
TCOON,ioos:station:TCOON:068:1,2019-11-05T12:18:00Z,27.2970,-97.4049,4.459,11111222 
TCOON,ioos:station:TCOON:068:1,2019-11-05T13:18:00Z,27.2970,-97.4049,4.458,11111222 
TCOON,ioos:station:TCOON:068:1,2019-11-05T14:18:00Z,27.2970,-97.4049,4.46,11111222 
TCOON,ioos:station:TCOON:068:1,2019-11-05T15:18:00Z,27.2970,-97.4049,4.464,11111222 
TCOON,ioos:station:TCOON:068:1,2019-11-05T16:18:00Z,27.2970,-97.4049,4.468,11111222 
TCOON,ioos:station:TCOON:068:1,2019-11-05T17:18:00Z,27.2970,-97.4049,4.468,11111222 
TCOON,ioos:station:TCOON:068:1,2019-11-05T18:18:00Z,27.2970,-97.4049,4.47,11111222 
TCOON,ioos:station:TCOON:068:1,2019-11-05T19:18:00Z,27.2970,-97.4049,4.471,11111222 
TCOON,ioos:station:TCOON:068:1,2019-11-05T20:18:00Z,27.2970,-97.4049,4.467,11111222 
TCOON,ioos:station:TCOON:068:1,2019-11-05T21:18:00Z,27.2970,-97.4049,4.476,11111222 
TCOON,ioos:station:TCOON:068:1,2019-11-05T22:18:00Z,27.2970,-97.4049,4.475,11111222 
TCOON,ioos:station:TCOON:068:1,2019-11-05T23:18:00Z,27.2970,-97.4049,4.475,11111222 
TCOON,ioos:station:TCOON:068:1,2019-11-06T00:18:00Z,27.2970,-97.4049,4.475,11111222 
TCOON,ioos:station:TCOON:068:1,2019-11-06T01:18:00Z,27.2970,-97.4049,4.48,11111222 
TCOON,ioos:station:TCOON:068:1,2019-11-06T02:18:00Z,27.2970,-97.4049,4.483,11111222 
TCOON,ioos:station:TCOON:068:1,2019-11-06T03:18:00Z,27.2970,-97.4049,4.482,11111222 
TCOON,ioos:station:TCOON:068:1,2019-11-06T04:18:00Z,27.2970,-97.4049,4.478,11111222 
TCOON,ioos:station:TCOON:068:1,2019-11-06T05:18:00Z,27.2970,-97.4049,4.477,11111222 
TCOON,ioos:station:TCOON:068:1,2019-11-06T06:18:00Z,27.2970,-97.4049,4.472,11111222 
TCOON,ioos:station:TCOON:068:1,2019-11-06T07:18:00Z,27.2970,-97.4049,4.469,11111222 
TCOON,ioos:station:TCOON:068:1,2019-11-06T08:18:00Z,27.2970,-97.4049,4.468,11111222 
TCOON,ioos:station:TCOON:068:1,2019-11-06T09:18:00Z,27.2970,-97.4049,4.464,11111222 
TCOON,ioos:station:TCOON:068:1,2019-11-06T10:18:00Z,27.2970,-97.4049,4.463,11111222 
TCOON,ioos:station:TCOON:068:1,2019-11-06T11:18:00Z,27.2970,-97.4049,4.461,11111222 
TCOON,ioos:station:TCOON:068:1,2019-11-06T12:18:00Z,27.2970,-97.4049,4.459,11111222 
TCOON,ioos:station:TCOON:068:1,2019-11-06T13:18:00Z,27.2970,-97.4049,4.457,11111222 
TCOON,ioos:station:TCOON:068:1,2019-11-06T14:18:00Z,27.2970,-97.4049,4.458,11111222 
TCOON,ioos:station:TCOON:068:1,2019-11-06T15:18:00Z,27.2970,-97.4049,4.458,11111222 
TCOON,ioos:station:TCOON:068:1,2019-11-06T16:18:00Z,27.2970,-97.4049,4.454,11111222 
TCOON,ioos:station:TCOON:068:1,2019-11-06T17:18:00Z,27.2970,-97.4049,4.447,11111222 
TCOON,ioos:station:TCOON:068:1,2019-11-06T18:18:00Z,27.2970,-97.4049,4.445,11111222 
TCOON,ioos:station:TCOON:068:1,2019-11-06T19:18:00Z,27.2970,-97.4049,4.447,11111222 
TCOON,ioos:station:TCOON:068:1,2019-11-06T20:18:00Z,27.2970,-97.4049,4.447,11111222 
TCOON,ioos:station:TCOON:068:1,2019-11-06T21:18:00Z,27.2970,-97.4049,4.448,11111222 
TCOON,ioos:station:TCOON:068:1,2019-11-06T22:18:00Z,27.2970,-97.4049,4.45,11111222 
TCOON,ioos:station:TCOON:068:1,2019-11-06T23:18:00Z,27.2970,-97.4049,4.452,11111222 
TCOON,ioos:station:TCOON:068:1,2019-11-07T00:18:00Z,27.2970,-97.4049,4.45,11111222 
TCOON,ioos:station:TCOON:068:1,2019-11-07T01:18:00Z,27.2970,-97.4049,4.453,11111222 
TCOON,ioos:station:TCOON:068:1,2019-11-07T02:18:00Z,27.2970,-97.4049,4.456,11111222 
TCOON,ioos:station:TCOON:068:1,2019-11-07T03:18:00Z,27.2970,-97.4049,4.456,11111222 
TCOON,ioos:station:TCOON:068:1,2019-11-07T04:18:00Z,27.2970,-97.4049,4.452,11111222 
TCOON,ioos:station:TCOON:068:1,2019-11-07T05:18:00Z,27.2970,-97.4049,4.448,11111222 
TCOON,ioos:station:TCOON:068:1,2019-11-07T06:18:00Z,27.2970,-97.4049,4.45,11111222 
TCOON,ioos:station:TCOON:068:1,2019-11-07T07:24:00Z,27.2970,-97.4049,4.45,11111222 
TCOON,ioos:station:TCOON:068:1,2019-11-07T08:18:00Z,27.2970,-97.4049,4.448,11111222 
TCOON,ioos:station:TCOON:068:1,2019-11-07T09:18:00Z,27.2970,-97.4049,4.448,11111222 
TCOON,ioos:station:TCOON:068:1,2019-11-07T10:18:00Z,27.2970,-97.4049,4.447,11111222 
TCOON,ioos:station:TCOON:068:1,2019-11-07T11:18:00Z,27.2970,-97.4049,4.443,11111222 
TCOON,ioos:station:TCOON:068:1,2019-11-07T12:18:00Z,27.2970,-97.4049,4.446,11111222 
TCOON,ioos:station:TCOON:068:1,2019-11-07T13:18:00Z,27.2970,-97.4049,4.448,11111222 
TCOON,ioos:station:TCOON:068:1,2019-11-07T14:18:00Z,27.2970,-97.4049,4.451,11111222 
TCOON,ioos:station:TCOON:068:1,2019-11-07T15:18:00Z,27.2970,-97.4049,4.453,11111222 
TCOON,ioos:station:TCOON:068:1,2019-11-07T16:18:00Z,27.2970,-97.4049,4.455,11111222 
TCOON,ioos:station:TCOON:068:1,2019-11-07T17:18:00Z,27.2970,-97.4049,4.452,11111222 
TCOON,ioos:station:TCOON:068:1,2019-11-07T18:18:00Z,27.2970,-97.4049,4.447,11111222 
TCOON,ioos:station:TCOON:068:1,2019-11-07T19:18:00Z,27.2970,-97.4049,4.446,11111222 
TCOON,ioos:station:TCOON:068:1,2019-11-07T20:18:00Z,27.2970,-97.4049,4.448,11111222 
TCOON,ioos:station:TCOON:068:1,2019-11-07T21:18:00Z,27.2970,-97.4049,4.457,11111222 
TCOON,ioos:station:TCOON:068:1,2019-11-07T22:18:00Z,27.2970,-97.4049,4.462,11111222 
TCOON,ioos:station:TCOON:068:1,2019-11-07T23:18:00Z,27.2970,-97.4049,4.466,11111222 
TCOON,ioos:station:TCOON:068:1,2019-11-08T00:18:00Z,27.2970,-97.4049,4.427,11111222 
TCOON,ioos:station:TCOON:068:1,2019-11-08T01:18:00Z,27.2970,-97.4049,4.394,11111222 
TCOON,ioos:station:TCOON:068:1,2019-11-08T02:18:00Z,27.2970,-97.4049,4.386,11111222 
TCOON,ioos:station:TCOON:068:1,2019-11-08T03:18:00Z,27.2970,-97.4049,4.399,11111222 
TCOON,ioos:station:TCOON:068:1,2019-11-08T04:18:00Z,27.2970,-97.4049,4.473,11111222 
TCOON,ioos:station:TCOON:068:1,2019-11-08T05:18:00Z,27.2970,-97.4049,4.482,11111222 
TCOON,ioos:station:TCOON:068:1,2019-11-08T06:18:00Z,27.2970,-97.4049,4.508,11111222 
TCOON,ioos:station:TCOON:068:1,2019-11-08T07:18:00Z,27.2970,-97.4049,4.505,11111222 
TCOON,ioos:station:TCOON:068:1,2019-11-08T08:18:00Z,27.2970,-97.4049,4.491,11111222 
TCOON,ioos:station:TCOON:068:1,2019-11-08T09:18:00Z,27.2970,-97.4049,4.507,11111222 
TCOON,ioos:station:TCOON:068:1,2019-11-08T10:18:00Z,27.2970,-97.4049,4.501,11111222 
TCOON,ioos:station:TCOON:068:1,2019-11-08T11:18:00Z,27.2970,-97.4049,4.503,11111222 
TCOON,ioos:station:TCOON:068:1,2019-11-08T12:18:00Z,27.2970,-97.4049,4.517,11111222 
TCOON,ioos:station:TCOON:068:1,2019-11-08T13:18:00Z,27.2970,-97.4049,4.498,11111222 
TCOON,ioos:station:TCOON:068:1,2019-11-08T14:18:00Z,27.2970,-97.4049,4.492,11111222 
TCOON,ioos:station:TCOON:068:1,2019-11-08T15:18:00Z,27.2970,-97.4049,4.491,11111222 
TCOON,ioos:station:TCOON:068:1,2019-11-08T16:18:00Z,27.2970,-97.4049,4.495,11111222 
TCOON,ioos:station:TCOON:068:1,2019-11-08T17:18:00Z,27.2970,-97.4049,4.491,11111222 
TCOON,ioos:station:TCOON:068:1,2019-11-08T18:18:00Z,27.2970,-97.4049,4.503,11111222 
TCOON,ioos:station:TCOON:068:1,2019-11-08T19:18:00Z,27.2970,-97.4049,4.509,11111222 
TCOON,ioos:station:TCOON:068:1,2019-11-08T20:18:00Z,27.2970,-97.4049,4.51,11111222 
TCOON,ioos:station:TCOON:068:1,2019-11-08T21:18:00Z,27.2970,-97.4049,4.505,11111222 
TCOON,ioos:station:TCOON:068:1,2019-11-08T22:18:00Z,27.2970,-97.4049,4.496,11111222 
TCOON,ioos:station:TCOON:068:1,2019-11-08T23:18:00Z,27.2970,-97.4049,4.492,11111222 
TCOON,ioos:station:TCOON:068:1,2019-11-09T00:18:00Z,27.2970,-97.4049,4.487,11111222 
TCOON,ioos:station:TCOON:068:1,2019-11-09T01:18:00Z,27.2970,-97.4049,4.488,11111222 
TCOON,ioos:station:TCOON:068:1,2019-11-09T02:18:00Z,27.2970,-97.4049,4.484,11111222 
TCOON,ioos:station:TCOON:068:1,2019-11-09T03:18:00Z,27.2970,-97.4049,4.491,11111222 
TCOON,ioos:station:TCOON:068:1,2019-11-09T04:18:00Z,27.2970,-97.4049,4.492,11111222 
TCOON,ioos:station:TCOON:068:1,2019-11-09T05:18:00Z,27.2970,-97.4049,4.496,11111222 
TCOON,ioos:station:TCOON:068:1,2019-11-09T06:18:00Z,27.2970,-97.4049,4.496,11111222 
TCOON,ioos:station:TCOON:068:1,2019-11-09T07:18:00Z,27.2970,-97.4049,4.49,11111222 
TCOON,ioos:station:TCOON:068:1,2019-11-09T08:18:00Z,27.2970,-97.4049,4.492,11111222 
TCOON,ioos:station:TCOON:068:1,2019-11-09T09:18:00Z,27.2970,-97.4049,4.487,11111222 
TCOON,ioos:station:TCOON:068:1,2019-11-09T10:18:00Z,27.2970,-97.4049,4.494,11111222 
TCOON,ioos:station:TCOON:068:1,2019-11-09T11:18:00Z,27.2970,-97.4049,4.499,11111222 
TCOON,ioos:station:TCOON:068:1,2019-11-09T12:18:00Z,27.2970,-97.4049,4.497,11111222 
TCOON,ioos:station:TCOON:068:1,2019-11-09T13:18:00Z,27.2970,-97.4049,4.497,11111222 
TCOON,ioos:station:TCOON:068:1,2019-11-09T14:18:00Z,27.2970,-97.4049,4.496,11111222 
TCOON,ioos:station:TCOON:068:1,2019-11-09T15:18:00Z,27.2970,-97.4049,4.5,11111222 
TCOON,ioos:station:TCOON:068:1,2019-11-09T16:18:00Z,27.2970,-97.4049,4.501,11111222 
TCOON,ioos:station:TCOON:068:1,2019-11-09T17:18:00Z,27.2970,-97.4049,4.499,11111222 
TCOON,ioos:station:TCOON:068:1,2019-11-09T18:18:00Z,27.2970,-97.4049,4.498,11111222 
TCOON,ioos:station:TCOON:068:1,2019-11-09T19:18:00Z,27.2970,-97.4049,4.497,11111222 
TCOON,ioos:station:TCOON:068:1,2019-11-09T20:18:00Z,27.2970,-97.4049,4.498,11111222 
TCOON,ioos:station:TCOON:068:1,2019-11-09T21:18:00Z,27.2970,-97.4049,4.497,11111222 
TCOON,ioos:station:TCOON:068:1,2019-11-09T22:18:00Z,27.2970,-97.4049,4.496,11111222 
TCOON,ioos:station:TCOON:068:1,2019-11-09T23:18:00Z,27.2970,-97.4049,4.487,11111222 
TCOON,ioos:station:TCOON:068:1,2019-11-10T00:18:00Z,27.2970,-97.4049,4.475,11111222 
TCOON,ioos:station:TCOON:068:1,2019-11-10T01:18:00Z,27.2970,-97.4049,4.471,11111222 
TCOON,ioos:station:TCOON:068:1,2019-11-10T02:18:00Z,27.2970,-97.4049,4.474,11111222 
TCOON,ioos:station:TCOON:068:1,2019-11-10T03:18:00Z,27.2970,-97.4049,4.477,11111222 
TCOON,ioos:station:TCOON:068:1,2019-11-10T04:18:00Z,27.2970,-97.4049,4.478,11111222 
TCOON,ioos:station:TCOON:068:1,2019-11-10T05:18:00Z,27.2970,-97.4049,4.48,11111222 
TCOON,ioos:station:TCOON:068:1,2019-11-10T06:18:00Z,27.2970,-97.4049,4.486,11111222 
TCOON,ioos:station:TCOON:068:1,2019-11-10T07:18:00Z,27.2970,-97.4049,4.479,11111222 
TCOON,ioos:station:TCOON:068:1,2019-11-10T08:18:00Z,27.2970,-97.4049,4.479,11111222 
TCOON,ioos:station:TCOON:068:1,2019-11-10T09:18:00Z,27.2970,-97.4049,4.474,11111222 
TCOON,ioos:station:TCOON:068:1,2019-11-10T10:18:00Z,27.2970,-97.4049,4.472,11111222 
TCOON,ioos:station:TCOON:068:1,2019-11-10T11:18:00Z,27.2970,-97.4049,4.473,11111222 
TCOON,ioos:station:TCOON:068:1,2019-11-10T12:18:00Z,27.2970,-97.4049,4.47,11111222 
TCOON,ioos:station:TCOON:068:1,2019-11-10T13:18:00Z,27.2970,-97.4049,4.473,11111222 
TCOON,ioos:station:TCOON:068:1,2019-11-10T14:18:00Z,27.2970,-97.4049,4.471,11111222 
TCOON,ioos:station:TCOON:068:1,2019-11-10T15:18:00Z,27.2970,-97.4049,4.469,11111222 
TCOON,ioos:station:TCOON:068:1,2019-11-10T16:18:00Z,27.2970,-97.4049,4.467,11111222 
TCOON,ioos:station:TCOON:068:1,2019-11-10T17:18:00Z,27.2970,-97.4049,4.459,11111222 
TCOON,ioos:station:TCOON:068:1,2019-11-10T18:18:00Z,27.2970,-97.4049,4.476,11111222 
TCOON,ioos:station:TCOON:068:1,2019-11-10T19:18:00Z,27.2970,-97.4049,4.461,11111222 
TCOON,ioos:station:TCOON:068:1,2019-11-10T20:18:00Z,27.2970,-97.4049,4.454,11111222 
TCOON,ioos:station:TCOON:068:1,2019-11-10T21:18:00Z,27.2970,-97.4049,4.448,11111222 
TCOON,ioos:station:TCOON:068:1,2019-11-10T22:18:00Z,27.2970,-97.4049,4.447,11111222 
TCOON,ioos:station:TCOON:068:1,2019-11-10T23:18:00Z,27.2970,-97.4049,4.446,11111222 
TCOON,ioos:station:TCOON:068:1,2019-11-11T00:18:00Z,27.2970,-97.4049,4.45,11111222 
TCOON,ioos:station:TCOON:068:1,2019-11-11T01:18:00Z,27.2970,-97.4049,4.458,11111222 
TCOON,ioos:station:TCOON:068:1,2019-11-11T02:18:00Z,27.2970,-97.4049,4.458,11111222 
TCOON,ioos:station:TCOON:068:1,2019-11-11T03:18:00Z,27.2970,-97.4049,4.462,11111222 
TCOON,ioos:station:TCOON:068:1,2019-11-11T04:18:00Z,27.2970,-97.4049,4.458,11111222 
TCOON,ioos:station:TCOON:068:1,2019-11-11T05:18:00Z,27.2970,-97.4049,4.447,11111222 
TCOON,ioos:station:TCOON:068:1,2019-11-11T06:18:00Z,27.2970,-97.4049,4.446,11111222 
TCOON,ioos:station:TCOON:068:1,2019-11-11T07:18:00Z,27.2970,-97.4049,4.448,11111222 
TCOON,ioos:station:TCOON:068:1,2019-11-11T08:18:00Z,27.2970,-97.4049,4.453,11111222 
TCOON,ioos:station:TCOON:068:1,2019-11-11T09:18:00Z,27.2970,-97.4049,4.457,11111222 
TCOON,ioos:station:TCOON:068:1,2019-11-11T10:18:00Z,27.2970,-97.4049,4.454,11111222 
TCOON,ioos:station:TCOON:068:1,2019-11-11T11:18:00Z,27.2970,-97.4049,4.453,11111222 
TCOON,ioos:station:TCOON:068:1,2019-11-11T12:18:00Z,27.2970,-97.4049,4.45,11111222 
TCOON,ioos:station:TCOON:068:1,2019-11-11T13:18:00Z,27.2970,-97.4049,4.443,11111222 
TCOON,ioos:station:TCOON:068:1,2019-11-11T14:18:00Z,27.2970,-97.4049,4.451,11111222 
TCOON,ioos:station:TCOON:068:1,2019-11-11T15:18:00Z,27.2970,-97.4049,4.453,11111222 
TCOON,ioos:station:TCOON:068:1,2019-11-11T16:18:00Z,27.2970,-97.4049,4.446,11111222 
TCOON,ioos:station:TCOON:068:1,2019-11-11T17:18:00Z,27.2970,-97.4049,4.433,11111222 
TCOON,ioos:station:TCOON:068:1,2019-11-11T18:18:00Z,27.2970,-97.4049,4.436,11111222 
TCOON,ioos:station:TCOON:068:1,2019-11-11T19:18:00Z,27.2970,-97.4049,4.441,11111222 
TCOON,ioos:station:TCOON:068:1,2019-11-11T20:18:00Z,27.2970,-97.4049,4.441,11111222 
TCOON,ioos:station:TCOON:068:1,2019-11-11T21:18:00Z,27.2970,-97.4049,4.436,11111222 
TCOON,ioos:station:TCOON:068:1,2019-11-11T22:18:00Z,27.2970,-97.4049,4.433,11111222 
TCOON,ioos:station:TCOON:068:1,2019-11-11T23:18:00Z,27.2970,-97.4049,4.438,11111222 
TCOON,ioos:station:TCOON:068:1,2019-11-12T00:18:00Z,27.2970,-97.4049,4.44,11111222 
TCOON,ioos:station:TCOON:068:1,2019-11-12T01:18:00Z,27.2970,-97.4049,4.413,11111222 
TCOON,ioos:station:TCOON:068:1,2019-11-12T02:18:00Z,27.2970,-97.4049,4.441,11111222 
TCOON,ioos:station:TCOON:068:1,2019-11-12T03:18:00Z,27.2970,-97.4049,4.466,11111222 
TCOON,ioos:station:TCOON:068:1,2019-11-12T04:18:00Z,27.2970,-97.4049,4.498,11111222 
TCOON,ioos:station:TCOON:068:1,2019-11-12T05:18:00Z,27.2970,-97.4049,4.479,11111222 
TCOON,ioos:station:TCOON:068:1,2019-11-12T06:18:00Z,27.2970,-97.4049,4.506,11111222 
TCOON,ioos:station:TCOON:068:1,2019-11-12T07:18:00Z,27.2970,-97.4049,4.476,11111222 
TCOON,ioos:station:TCOON:068:1,2019-11-12T08:18:00Z,27.2970,-97.4049,4.489,11111222 
TCOON,ioos:station:TCOON:068:1,2019-11-12T09:18:00Z,27.2970,-97.4049,4.503,11111222 
TCOON,ioos:station:TCOON:068:1,2019-11-12T10:18:00Z,27.2970,-97.4049,4.481,11111222 
TCOON,ioos:station:TCOON:068:1,2019-11-12T11:18:00Z,27.2970,-97.4049,4.474,11111222 
TCOON,ioos:station:TCOON:068:1,2019-11-12T12:18:00Z,27.2970,-97.4049,4.483,11111222 
TCOON,ioos:station:TCOON:068:1,2019-11-12T13:18:00Z,27.2970,-97.4049,4.488,11111222 
TCOON,ioos:station:TCOON:068:1,2019-11-12T14:18:00Z,27.2970,-97.4049,4.496,11111222 
TCOON,ioos:station:TCOON:068:1,2019-11-12T15:18:00Z,27.2970,-97.4049,4.494,11111222 
TCOON,ioos:station:TCOON:068:1,2019-11-12T16:18:00Z,27.2970,-97.4049,4.507,11111222 
TCOON,ioos:station:TCOON:068:1,2019-11-12T17:18:00Z,27.2970,-97.4049,4.499,11111222 
TCOON,ioos:station:TCOON:068:1,2019-11-12T18:18:00Z,27.2970,-97.4049,4.517,11111222 
TCOON,ioos:station:TCOON:068:1,2019-11-12T19:18:00Z,27.2970,-97.4049,4.489,11111222 
TCOON,ioos:station:TCOON:068:1,2019-11-12T20:18:00Z,27.2970,-97.4049,4.496,11111222 
TCOON,ioos:station:TCOON:068:1,2019-11-12T21:18:00Z,27.2970,-97.4049,4.478,11111222 
TCOON,ioos:station:TCOON:068:1,2019-11-12T22:18:00Z,27.2970,-97.4049,4.472,11111222 
TCOON,ioos:station:TCOON:068:1,2019-11-12T23:18:00Z,27.2970,-97.4049,4.463,11111222 
TCOON,ioos:station:TCOON:068:1,2019-11-13T00:18:00Z,27.2970,-97.4049,4.455,11111222 
TCOON,ioos:station:TCOON:068:1,2019-11-13T01:18:00Z,27.2970,-97.4049,4.455,11111222 